When you browse on this site, cookies collect data to enhance your experience and personalize the content and advertising you see.
Visit our Privacy Policy to learn more. By continuing to use the site, you agree to this use of cookies and data.
  • En España
  • Lista de países
  • Para 7 días
  • Temperatura del agua
  • El tiempo en el mapa
  • Informadores
  • user-avatar
    Iniciar sesión

    Tiempo cada hora Limache

    Hoy, 3 Abril, Viernes

    Tiempo Temperatura Precipitaciones Viento Presión Humedad
    00:00 +12°C° 0 mm 0 mps 748 mmHg 69%
    01:00 +12°C° 0 mm 0 mps 747 mmHg 68%
    02:00 +12°C° 0 mm 0 mps 747 mmHg 66%
    03:00 +12°C° 0 mm 0 mps 747 mmHg 65%
    04:00 +12°C° 0 mm 0 mps 746 mmHg 63%
    05:00 +13°C° 0 mm 0 mps 746 mmHg 60%
    06:00 +15°C° 0 mm 0 mps 747 mmHg 56%
    07:00 +16°C° 0 mm 0 mps 747 mmHg 52%
    08:00 +21°C° 0 mm 1 mps 747 mmHg 47%
    09:00 +24°C° 0 mm 2 mps 747 mmHg 42%
    10:00 +26°C° 0 mm 3 mps 748 mmHg 37%
    11:00 +27°C° 0 mm 3 mps 748 mmHg 36%
    12:00 +28°C° 0 mm 3 mps 748 mmHg 34%
    13:00 +29°C° 0 mm 3 mps 748 mmHg 33%
    14:00 +28°C° 0 mm 3 mps 747 mmHg 37%
    15:00 +27°C° 0 mm 2 mps 747 mmHg 41%
    16:00 +26°C° 0 mm 2 mps 747 mmHg 45%
    17:00 +21°C° 0 mm 2 mps 747 mmHg 58%
    18:00 +18°C° 0 mm 1 mps 747 mmHg 72%
    19:00 +13°C° 0 mm 0 mps 747 mmHg 85%
    20:00 +14°C° 0 mm 1 mps 747 mmHg 83%
    21:00 +14°C° 0 mm 1 mps 747 mmHg 81%
    22:00 +14°C° 0 mm 1 mps 747 mmHg 80%
    23:00 +14°C° 0 mm 1 mps 746 mmHg 77%

    Mañana, 4 Abril, Sábado

    Tiempo Temperatura Precipitaciones Viento Presión Humedad
    00:00 +14°C° 0 mm 1 mps 746 mmHg 75%
    01:00 +14°C° 0 mm 1 mps 746 mmHg 73%
    02:00 +14°C° 0 mm 1 mps 745 mmHg 70%
    03:00 +13°C° 0 mm 0 mps 745 mmHg 68%
    04:00 +13°C° 0 mm 0 mps 745 mmHg 66%
    05:00 +14°C° 0 mm 0 mps 745 mmHg 62%
    06:00 +15°C° 0 mm 0 mps 745 mmHg 59%
    07:00 +17°C° 0 mm 0 mps 746 mmHg 55%
    08:00 +22°C° 0 mm 1 mps 746 mmHg 47%
    09:00 +24°C° 0 mm 2 mps 746 mmHg 40%
    10:00 +27°C° 0 mm 2 mps 746 mmHg 33%
    11:00 +28°C° 0 mm 3 mps 746 mmHg 33%
    12:00 +28°C° 0 mm 3 mps 746 mmHg 34%
    13:00 +29°C° 0 mm 3 mps 746 mmHg 35%
    14:00 +27°C° 0 mm 3 mps 746 mmHg 39%
    15:00 +26°C° 0 mm 3 mps 746 mmHg 42%
    16:00 +25°C° 0 mm 2 mps 746 mmHg 46%
    17:00 +20°C° 0 mm 2 mps 746 mmHg 60%
    18:00 +18°C° 0 mm 1 mps 747 mmHg 73%
    19:00 +12°C° 0 mm 0 mps 747 mmHg 87%
    20:00 +12°C° 0 mm 0 mps 747 mmHg 87%
    21:00 +12°C° 0 mm 0 mps 747 mmHg 87%
    22:00 +12°C° 0 mm 0 mps 747 mmHg 87%
    23:00 +12°C° 0 mm 0 mps 747 mmHg 88%

    Pasado mañana, 5 Abril, Domingo

    Tiempo Temperatura Precipitaciones Viento Presión Humedad
    00:00 +11°C° 0 mm 0 mps 747 mmHg 88%
    01:00 +12°C° 0 mm 1 mps 747 mmHg 89%
    02:00 +11°C° 0 mm 0 mps 747 mmHg 88%
    03:00 +10°C° 0 mm 0 mps 747 mmHg 88%
    04:00 +10°C° 0 mm 0 mps 747 mmHg 87%
    05:00 +12°C° 0 mm 0 mps 748 mmHg 82%
    06:00 +13°C° 0 mm 0 mps 748 mmHg 76%
    07:00 +15°C° 0 mm 0 mps 749 mmHg 71%
    08:00 +20°C° 0 mm 1 mps 749 mmHg 61%
    09:00 +23°C° 0 mm 1 mps 749 mmHg 50%
    10:00 +25°C° 0 mm 2 mps 750 mmHg 40%
    11:00 +26°C° 0 mm 2 mps 750 mmHg 37%
    12:00 +27°C° 0 mm 3 mps 750 mmHg 34%
    13:00 +28°C° 0 mm 3 mps 750 mmHg 31%
    14:00 +27°C° 0 mm 3 mps 750 mmHg 32%
    15:00 +26°C° 0 mm 3 mps 750 mmHg 34%
    16:00 +25°C° 0 mm 2 mps 750 mmHg 36%
    17:00 +21°C° 0 mm 2 mps 750 mmHg 48%
    18:00 +18°C° 0 mm 1 mps 750 mmHg 61%
    19:00 +13°C° 0 mm 1 mps 750 mmHg 74%
    20:00 +13°C° 0 mm 1 mps 751 mmHg 72%
    21:00 +13°C° 0 mm 1 mps 751 mmHg 69%
    22:00 +14°C° 0 mm 1 mps 751 mmHg 67%
    23:00 +14°C° 0 mm 1 mps 750 mmHg 65%

    6 Abril, Lunes

    Tiempo Temperatura Precipitaciones Viento Presión Humedad
    00:00 +14°C° 0 mm 1 mps 750 mmHg 62%
    01:00 +14°C° 0 mm 1 mps 750 mmHg 60%
    02:00 +14°C° 0 mm 1 mps 750 mmHg 59%
    03:00 +14°C° 0 mm 1 mps 750 mmHg 57%
    04:00 +14°C° 0 mm 1 mps 750 mmHg 56%
    05:00 +16°C° 0 mm 1 mps 750 mmHg 51%
    06:00 +17°C° 0 mm 0 mps 750 mmHg 46%
    07:00 +18°C° 0 mm 0 mps 750 mmHg 41%
    08:00 +23°C° 0 mm 1 mps 750 mmHg 35%
    09:00 +26°C° 0 mm 1 mps 750 mmHg 29%
    10:00 +29°C° 0 mm 2 mps 750 mmHg 23%
    11:00 +30°C° 0 mm 2 mps 750 mmHg 23%
    12:00 +31°C° 0 mm 3 mps 750 mmHg 23%
    13:00 +31°C° 0 mm 3 mps 749 mmHg 23%
    14:00 +30°C° 0 mm 3 mps 749 mmHg 25%
    15:00 +29°C° 0 mm 2 mps 749 mmHg 28%
    16:00 +28°C° 0 mm 2 mps 749 mmHg 30%
    17:00 +24°C° 0 mm 1 mps 749 mmHg 43%
    18:00 +20°C° 0 mm 1 mps 749 mmHg 55%
    19:00 +14°C° 0 mm 0 mps 749 mmHg 68%
    20:00 +13°C° 0 mm 0 mps 749 mmHg 68%
    21:00 +13°C° 0 mm 0 mps 749 mmHg 67%
    22:00 +13°C° 0 mm 0 mps 749 mmHg 67%
    23:00 +13°C° 0 mm 0 mps 749 mmHg 66%

    7 Abril, Martes

    Tiempo Temperatura Precipitaciones Viento Presión Humedad
    00:00 +13°C° 0 mm 0 mps 749 mmHg 66%
    01:00 +13°C° 0 mm 0 mps 748 mmHg 65%
    02:00 +13°C° 0 mm 0 mps 748 mmHg 64%
    03:00 +13°C° 0 mm 0 mps 748 mmHg 64%
    04:00 +13°C° 0 mm 0 mps 748 mmHg 63%
    05:00 +15°C° 0 mm 0 mps 748 mmHg 57%
    06:00 +17°C° 0 mm 0 mps 748 mmHg 51%
    07:00 +19°C° 0 mm 0 mps 748 mmHg 45%
    08:00 +24°C° 0 mm 1 mps 748 mmHg 38%
    09:00 +27°C° 0 mm 1 mps 748 mmHg 31%
    10:00 +30°C° 0 mm 2 mps 748 mmHg 24%
    11:00 +31°C° 0 mm 2 mps 748 mmHg 24%
    12:00 +31°C° 0 mm 3 mps 748 mmHg 24%
    13:00 +33°C° 0 mm 3 mps 748 mmHg 24%
    14:00 +30°C° 0 mm 3 mps 748 mmHg 26%
    15:00 +29°C° 0 mm 2 mps 748 mmHg 28%
    16:00 +28°C° 0 mm 2 mps 748 mmHg 30%
    17:00 +24°C° 0 mm 1 mps 748 mmHg 42%
    18:00 +19°C° 0 mm 1 mps 748 mmHg 55%
    19:00 +13°C° 0 mm 0 mps 748 mmHg 67%
    20:00 +13°C° 0 mm 0 mps 748 mmHg 66%
    21:00 +13°C° 0 mm 0 mps 748 mmHg 65%
    22:00 +13°C° 0 mm 0 mps 748 mmHg 64%
    23:00 +13°C° 0 mm 0 mps 748 mmHg 64%

    8 Abril, Miércoles

    Tiempo Temperatura Precipitaciones Viento Presión Humedad
    00:00 +13°C° 0 mm 0 mps 748 mmHg 64%
    01:00 +13°C° 0 mm 0 mps 748 mmHg 63%
    02:00 +13°C° 0 mm 0 mps 747 mmHg 64%
    03:00 +13°C° 0 mm 0 mps 747 mmHg 64%
    04:00 +12°C° 0 mm 0 mps 747 mmHg 64%
    05:00 +14°C° 0 mm 0 mps 747 mmHg 59%
    06:00 +16°C° 0 mm 0 mps 748 mmHg 53%
    07:00 +18°C° 0 mm 0 mps 748 mmHg 48%
    08:00 +23°C° 0 mm 1 mps 748 mmHg 42%
    09:00 +26°C° 0 mm 1 mps 748 mmHg 35%
    10:00 +28°C° 0 mm 2 mps 749 mmHg 29%
    11:00 +29°C° 0 mm 3 mps 749 mmHg 29%
    12:00 +29°C° 0 mm 3 mps 749 mmHg 29%
    13:00 +29°C° 0 mm 3 mps 749 mmHg 29%
    14:00 +28°C° 0 mm 3 mps 749 mmHg 33%
    15:00 +27°C° 0 mm 3 mps 749 mmHg 36%
    16:00 +25°C° 0 mm 2 mps 749 mmHg 39%
    17:00 +20°C° 0 mm 2 mps 749 mmHg 54%
    18:00 +18°C° 0 mm 1 mps 749 mmHg 68%
    19:00 +12°C° 0 mm 0 mps 749 mmHg 82%
    20:00 +12°C° 0 mm 0 mps 749 mmHg 81%
    21:00 +12°C° 0 mm 0 mps 749 mmHg 80%
    22:00 +11°C° 0 mm 0 mps 749 mmHg 79%
    23:00 +11°C° 0 mm 0 mps 749 mmHg 80%
    Mostrar más